This is the latest recevied weather packets stored in our database for station/object MM1PTT-13. If no packets are shown the sender has not sent any weather packets the latest 1 day(s).
| Time | Temp. | Humidity | Pressure | Rain* | Wind** | Luminosity | Snow |
|---|---|---|---|---|---|---|---|
| 1778017243 | 6.67° C | 69% | 988.5 hPa | 0 mm | 1.34 m/s, 62° | 0 W/m² | - |
| 1778016943 | 6.67° C | 69% | 988.8 hPa | 0 mm | 1.34 m/s, 39° | 0 W/m² | - |
| 1778016642 | 6.67° C | 69% | 988.5 hPa | 0 mm | 0.89 m/s, 12° | 0 W/m² | - |
| 1778016344 | 6.67° C | 69% | 988.8 hPa | 0 mm | 1.34 m/s, 37° | 0 W/m² | - |
| 1778016043 | 6.67° C | 69% | 988.5 hPa | 0 mm | 0.45 m/s, 125° | 0 W/m² | - |
| 1778015743 | 6.67° C | 70% | 988.5 hPa | 0 mm | 1.34 m/s, 71° | 0 W/m² | - |
| 1778015443 | 6.67° C | 69% | 988.8 hPa | 0 mm | 0.89 m/s, 20° | 0 W/m² | - |
| 1778015143 | 6.67° C | 69% | 988.5 hPa | 0 mm | 1.79 m/s, 46° | 0 W/m² | - |
| 1778014843 | 6.67° C | 69% | 988.5 hPa | 0 mm | 0.89 m/s, 30° | 0 W/m² | - |
| 1778014543 | 6.67° C | 68% | 988.8 hPa | 0 mm | 1.34 m/s, 51° | 0 W/m² | - |
| 1778014246 | 6.67° C | 69% | 988.5 hPa | 0 mm | 0.89 m/s, 24° | 0 W/m² | - |
| 1778013943 | 6.67° C | 68% | 988.8 hPa | 0 mm | 1.79 m/s, 52° | 0 W/m² | - |
| 1778013643 | 6.67° C | 68% | 988.5 hPa | 0 mm | 0.45 m/s, 29° | 0 W/m² | - |
| 1778013343 | 7.22° C | 67% | 988.5 hPa | 0 mm | 1.79 m/s, 118° | 0 W/m² | - |
| 1778013042 | 7.22° C | 67% | 988.5 hPa | 0 mm | 1.79 m/s, 53° | 0 W/m² | - |
| 1778012743 | 7.22° C | 68% | 988.5 hPa | 0 mm | 1.34 m/s, 49° | 0 W/m² | - |
| 1778012443 | 7.22° C | 67% | 988.1 hPa | 0 mm | 1.79 m/s, 46° | 0 W/m² | - |
| 1778012143 | 7.22° C | 67% | 988.5 hPa | 0 mm | 1.34 m/s, 31° | 1 W/m² | - |
| 1778011842 | 7.22° C | 67% | 988.1 hPa | 0 mm | 1.79 m/s, 109° | 1 W/m² | - |
| 1778011543 | 7.22° C | 67% | 988.1 hPa | 0 mm | 2.68 m/s, 27° | 2 W/m² | - |
| 1778011246 | 7.22° C | 66% | 988.1 hPa | 0 mm | 1.34 m/s, 30° | 3 W/m² | - |
| 1778010945 | 7.22° C | 67% | 988.1 hPa | 0 mm | 2.24 m/s, 347° | 3 W/m² | - |
| 1778010645 | 7.22° C | 66% | 988.5 hPa | 0 mm | 1.79 m/s, 119° | 4 W/m² | - |
| 1778010343 | 7.22° C | 66% | 988.1 hPa | 0 mm | 1.79 m/s, 35° | 6 W/m² | - |
| 1778010043 | 7.22° C | 66% | 988.5 hPa | 0 mm | 2.24 m/s, 17° | 6 W/m² | - |
* Rain latest hour (hover to see other rain measurements)
** Current wind speed in m/s (hover to see current wind gust speed)